Weather WX

World > North America > United States > New York

North Winfield, New York Regional Weather

Lat: 42.93N, Lon: 75.19W
Wx Zone: NYZ038
Feedback

North Winfield, NY Regional Weather

Expires:201907160600;;713382
ASUS41 KGYX 160510
RWRGYX
WEATHER ROUNDUP FOR MAINE AND NEW HAMPSHIRE
NATIONAL WEATHER SERVICE GRAY ME
100 AM EDT TUE JUL 16 2019


MAZ007-012-024-CTZ003-RIZ002-NYZ038-NYZ072-160600-
SOUTHERN NEW ENGLAND AND NY
  
CITY           SKY/WX    TMP DP  RH WIND       PRES   REMARKS
BOSTON         FAIR      75  56  51 W8        30.03S                  
WORCESTER      FAIR      65  56  72 NW5       30.08S                  
NANTUCKET      FAIR      65  63  93 SW6       30.04S                  
PROVIDENCE     FAIR      69  60  73 W5        30.05S                  
HARTFORD       MOCLDY    66  58  75 W5        30.05R                  
ALBANY         FAIR      66  57  72 CALM      30.06S                  
NEW YORK CITY  FAIR      78  58  49 E6        30.05R                  
$$


SKY/WX - Weather  TMP - Temperature  DP - Dew Point  RH - Relative Humidity
WIND - Wind Direction/Speed PRES - Barometric Pressure VSB - Visibility
WCI - Wind Chill Index E13G22 Wind - East Wind 13 mph/Gusts of 22 mph